Location: Lynch Observatory
(39.9540°N, 75.1861°W)
Time: 18:53:42
(UTC-04:00)

SPROUT - Visible Passes

Search period start: 23 April 2024 00:00
Search period end: 03 May 2024 00:00
Orbit: 466 x 473 km, 98.0° (Epoch: 22 April)

Date Brightness Start Highest point End Pass type
(mag) Time Alt. Az. Time Alt. Az. Time Alt. Az.
23 Apr ? 03:02:24 18° ENE 03:02:24 18° ENE 03:04:32 10° NNE visible
23 Apr ? 04:36:26 18° WNW 04:36:26 18° WNW 04:37:51 10° NW visible
24 Apr ? 04:06:48 38° NW 04:06:48 38° NW 04:09:10 10° NNW visible
25 Apr ? 03:36:54 43° NE 03:36:54 43° NE 03:39:42 10° N visible
26 Apr ? 03:06:44 20° ENE 03:06:45 20° ENE 03:09:23 10° NNE visible
26 Apr ? 04:40:43 19° WNW 04:40:43 19° WNW 04:42:24 10° NW visible
27 Apr ? 04:10:16 45° WNW 04:10:16 45° WNW 04:13:01 10° NNW visible
28 Apr ? 03:39:33 51° ENE 03:39:33 51° ENE 03:42:46 10° N visible
29 Apr ? 03:08:34 20° E 03:09:01 21° ENE 03:11:40 10° NNE visible
29 Apr ? 04:42:30 19° W 04:42:30 19° W 04:44:33 10° NW visible
30 Apr ? 04:11:15 52° W 04:11:15 52° W 04:14:24 10° NNW visible
01 May ? 03:39:44 49° E 03:39:58 51° ENE 03:43:20 10° N visible
02 May ? 03:07:56 18° E 03:08:49 20° ENE 03:11:23 10° NNE visible
02 May ? 04:41:49 21° W 04:41:49 21° W 04:44:19 10° NW visible
